{"data":{"norad_id":65219,"epoch":"2026-05-23T08:11:42.789408Z","epoch_age_seconds":214390,"freshness":"STALE","line1":"1 65219U 25176X   26143.34146747  .00014342  00000+0  49552-3 0  9997","line2":"2 65219  53.1586 165.7160 0001036  80.3530 279.7588 15.30193504 44553","mean_motion":15.30193504,"eccentricity":0.0001036,"inclination_deg":53.1586,"raan_deg":165.716,"arg_perigee_deg":80.353,"mean_anomaly_deg":279.7588,"bstar":0.00049552,"rev_number":4455,"period_min":94.105745203843,"perigee_km":474.52445608922,"apogee_km":475.94447465684,"semimajor_km":6853.371465373,"source":"CELESTRAK","updated_at":"2026-05-25T13:38:20.722098Z"}}